TimeHST,TemperatureF,Dew PointF,Humidity,Sea Level PressureIn,VisibilityMPH,Wind Direction,Wind SpeedMPH,Gust SpeedMPH,PrecipitationIn,Events,Conditions,WindDirDegrees,DateUTC
12:54 AM,68.0,66.9,96,30.06,9.0,Calm,Calm,-,N/A,,Clear,0,2013-05-23 10:54:00
1:54 AM,64.9,64.9,100,30.05,8.0,Calm,Calm,-,N/A,,Clear,0,2013-05-23 11:54:00
2:54 AM,68.0,68.0,100,30.04,9.0,Calm,Calm,-,N/A,,Clear,0,2013-05-23 12:54:00
3:54 AM,66.0,66.0,100,30.04,7.0,Calm,Calm,-,N/A,,Clear,0,2013-05-23 13:54:00
4:54 AM,66.0,66.0,100,30.04,8.0,Calm,Calm,-,N/A,,Clear,0,2013-05-23 14:54:00
5:54 AM,64.9,64.9,100,30.05,6.0,Calm,Calm,-,N/A,,Clear,0,2013-05-23 15:54:00
6:54 AM,70.0,68.0,93,30.06,9.0,Calm,Calm,-,N/A,,Clear,0,2013-05-23 16:54:00
7:54 AM,77.0,70.0,79,30.08,10.0,Calm,Calm,-,N/A,,Clear,0,2013-05-23 17:54:00
8:54 AM,78.1,70.0,76,30.09,10.0,North,5.8,-,N/A,,Partly Cloudy,10,2013-05-23 18:54:00
9:54 AM,79.0,72.0,79,30.08,10.0,NNE,12.7,19.6,N/A,,Scattered Clouds,20,2013-05-23 19:54:00
10:54 AM,81.0,71.1,72,30.07,10.0,NNE,12.7,23.0,N/A,,Scattered Clouds,30,2013-05-23 20:54:00
11:54 AM,82.9,71.1,67,30.06,10.0,NE,12.7,21.9,N/A,,Scattered Clouds,40,2013-05-23 21:54:00
12:54 PM,82.0,71.1,69,30.04,10.0,NNE,12.7,21.9,N/A,,Scattered Clouds,30,2013-05-23 22:54:00
1:54 PM,82.0,71.1,69,30.03,10.0,NE,17.3,26.5,N/A,,Scattered Clouds,50,2013-05-23 23:54:00
2:54 PM,82.0,71.1,69,30.01,10.0,NNE,16.1,29.9,N/A,,Scattered Clouds,30,2013-05-24 00:54:00
3:54 PM,80.1,70.0,71,30.02,10.0,NE,13.8,24.2,N/A,,Partly Cloudy,50,2013-05-24 01:54:00
4:54 PM,79.0,70.0,74,30.01,10.0,ENE,9.2,19.6,N/A,,Partly Cloudy,60,2013-05-24 02:54:00
5:54 PM,75.9,69.1,79,30.02,10.0,NE,11.5,19.6,N/A,,Partly Cloudy,40,2013-05-24 03:54:00
6:54 PM,73.9,69.1,85,30.03,10.0,NNE,11.5,17.3,N/A,,Clear,30,2013-05-24 04:54:00
7:54 PM,73.0,70.0,90,30.04,10.0,NNE,6.9,-,N/A,,Clear,20,2013-05-24 05:54:00
8:54 PM,73.0,69.1,87,30.06,10.0,NE,5.8,-,N/A,,Clear,40,2013-05-24 06:54:00
9:54 PM,73.0,69.1,87,30.07,10.0,NNE,10.4,-,N/A,,Clear,30,2013-05-24 07:54:00
10:54 PM,72.0,69.1,91,30.09,10.0,NNE,8.1,-,N/A,,Clear,20,2013-05-24 08:54:00
11:54 PM,71.1,68.0,90,30.08,10.0,NNE,4.6,-,N/A,,Clear,30,2013-05-24 09:54:00